Weather History for Weslaco, TX

Change the Weather History Date:

Saturday, June 15, 2013

  Actual Average (KMFE) Record (KMFE)
Temperature  
Mean Temperature 86 °F 86 °F  
Max Temperature 97 °F 96 °F 110 °F (1998)
Min Temperature 77 °F 76 °F 62 °F (1979)
Degree Days  
Heating Degree Days 0 0  
Month to date heating degree days 0  
Since 1 June heating degree days 0  
Since 1 July heating degree days 579  
Cooling Degree Days 22 21  
Month to date cooling degree days 309  
Year to date cooling degree days 1564  
Since 1 June cooling degree days 309  
Growing Degree Days 36 (Base 50)    
Moisture  
Dew Point 72 °F    
Average Humidity 66    
Maximum Humidity 89    
Minimum Humidity 39    
Precipitation  
Precipitation 0.00 in 0.08 in 3.26 in (1987)
Month to date precipitation 1.23  
Year to date precipitation 8.01  
Sea Level Pressure  
Sea Level Pressure 29.90 in    
Wind  
Wind Speed 9 mph (SE)    
Max Wind Speed 17 mph    
Max Gust Speed 24 mph    
Visibility 9 miles    
Events      
T = Trace of Precipitation, MM = Missing Value Source: NWS Daily Summary

Daily Weather History Graph

Daily Weather History Graph

Search for Another Location

Airport:

Trip Planner

Search our weather history database for the weather conditions in past years. The results will help you decide how hot, cold, wet, or windy it might be!

Date:

Astronomy

Jun. 15, 2013 Rise Set
Actual Time 6:39 AM CDT 8:25 PM CDT
Civil Twilight 6:13 AM CDT 8:51 PM CDT
Nautical Twilight 5:41 AM CDT 9:23 PM CDT
Astronomical Twilight 5:08 AM CDT 9:56 PM CDT
Moon 12:41 PM CDT (6/15) 12:32 AM CDT (6/15)
Length of Visible Light 14h 38m
Length of Day
13h 46m
Waxing Crescent, 40% of the Moon is Illuminated
Jun 15
Waxing Crescent
Jun 16
First Quarter
Jun 23
Full
Jun 29
Last Quarter
Jul 8
New

Hourly Weather History & Observations

Time (CDT) Temp. Heat Index Dew Point Humidity Pressure Visibility Wind Dir Wind Speed Gust Speed Precip Events Conditions
12:15 AM 78.8 °F - 73.4 °F 83% 29.92 in 10.0 mi SE 5.8 mph - N/A   Clear
12:35 AM 78.3 °F - 73.4 °F 85% 29.92 in 10.0 mi SE 5.8 mph - N/A   Clear
12:55 AM 78.1 °F - 73.4 °F 85% 29.92 in 10.0 mi SE 5.8 mph - N/A   Clear
1:15 AM 78.1 °F - 73.4 °F 85% 29.91 in 10.0 mi SE 5.8 mph - N/A   Clear
1:35 AM 78.1 °F - 73.4 °F 85% 29.91 in 10.0 mi SE 5.8 mph - N/A   Clear
2:15 AM 77.5 °F - 73.4 °F 87% 29.90 in 10.0 mi SE 5.8 mph - N/A   Clear
2:35 AM 77.5 °F - 73.4 °F 87% 29.89 in 10.0 mi SE 6.9 mph - N/A   Clear
2:55 AM 77.9 °F - 73.4 °F 86% 29.89 in 10.0 mi SE 8.1 mph - N/A   Clear
3:15 AM 77.5 °F - 73.4 °F 87% 29.88 in 10.0 mi SE 6.9 mph - N/A   Clear
3:35 AM 77.7 °F - 73.4 °F 86% 29.88 in 10.0 mi SE 6.9 mph - N/A   Clear
3:55 AM 77.7 °F - 73.4 °F 86% 29.88 in 10.0 mi SE 5.8 mph - N/A   Clear
4:15 AM 77.5 °F - 73.6 °F 88% 29.88 in 10.0 mi SSE 6.9 mph - N/A   Scattered Clouds
4:35 AM 77.9 °F - 73.8 °F 87% 29.89 in 10.0 mi SSE 9.2 mph - N/A   Mostly Cloudy
5:15 AM 77.4 °F - 73.6 °F 88% 29.89 in 10.0 mi SE 8.1 mph - N/A   Scattered Clouds
5:35 AM 77.4 °F - 73.6 °F 88% 29.89 in 10.0 mi SE 8.1 mph - N/A   Scattered Clouds
5:55 AM 77.4 °F - 73.4 °F 88% 29.89 in 10.0 mi SE 8.1 mph - N/A   Clear
6:15 AM 77.2 °F - 73.4 °F 88% 29.91 in 10.0 mi SE 5.8 mph - N/A   Clear
6:35 AM 77.2 °F - 73.6 °F 89% 29.92 in 10.0 mi SE 4.6 mph - N/A   Clear
6:55 AM 77.2 °F - 73.4 °F 88% 29.92 in 10.0 mi SSE 4.6 mph - N/A   Scattered Clouds
7:35 AM 77.9 °F - 73.8 °F 87% 29.93 in 10.0 mi SSE 3.5 mph - N/A   Scattered Clouds
7:55 AM 78.4 °F - 73.6 °F 85% 29.93 in 10.0 mi ESE 4.6 mph - N/A   Scattered Clouds
8:15 AM 81.0 °F 86.3 °F 74.3 °F 80% 29.94 in 10.0 mi SSE 5.8 mph - N/A   Clear
8:35 AM 82.2 °F 88.3 °F 74.1 °F 76% 29.94 in 7.0 mi SSE 8.1 mph - N/A   Clear
8:55 AM 81.9 °F 87.5 °F 73.8 °F 76% 29.94 in 7.0 mi SSE 10.4 mph - N/A   Scattered Clouds
9:15 AM 84.0 °F 90.8 °F 73.8 °F 71% 29.94 in 7.0 mi South 10.4 mph - N/A   Scattered Clouds
9:35 AM 87.3 °F 95.3 °F 73.8 °F 64% 29.94 in 7.0 mi South 12.7 mph - N/A   Mostly Cloudy
9:55 AM 86.7 °F 94.1 °F 73.0 °F 64% 29.94 in 7.0 mi South 13.8 mph 18.4 mph N/A   Mostly Cloudy
10:15 AM 88.2 °F 95.5 °F 72.7 °F 60% 29.94 in 7.0 mi South 12.7 mph 20.7 mph N/A   Mostly Cloudy
10:35 AM 88.9 °F 96.1 °F 72.3 °F 58% 29.94 in 7.0 mi South 12.7 mph 19.6 mph N/A   Mostly Cloudy
10:55 AM 88.9 °F 95.1 °F 71.4 °F 56% 29.94 in 7.0 mi SSE 12.7 mph - N/A   Scattered Clouds
11:15 AM 90.0 °F 96.9 °F 71.6 °F 55% 29.93 in 7.0 mi SSE 11.5 mph - N/A   Mostly Cloudy
11:35 AM 90.3 °F 97.2 °F 71.6 °F 54% 29.93 in 7.0 mi South 10.4 mph - N/A   Mostly Cloudy
11:55 AM 92.5 °F 99.0 °F 70.7 °F 49% 29.93 in 7.0 mi South 11.5 mph - N/A   Scattered Clouds
12:15 PM 92.5 °F 98.4 °F 70.3 °F 48% 29.92 in 7.0 mi SSE 12.7 mph 17.3 mph N/A   Scattered Clouds
12:55 PM 93.7 °F 98.8 °F 68.7 °F 44% 29.91 in 7.0 mi South 15.0 mph 19.6 mph N/A   Mostly Cloudy
1:15 PM 95.2 °F 99.9 °F 68.2 °F 41% 29.91 in 10.0 mi SE 11.5 mph 20.7 mph N/A   Scattered Clouds
1:35 PM 94.3 °F 98.7 °F 68.0 °F 42% 29.91 in 7.0 mi SSE 13.8 mph 20.7 mph N/A   Scattered Clouds
1:55 PM 96.1 °F 101.0 °F 68.4 °F 40% 29.90 in 7.0 mi SSE 15.0 mph 18.4 mph N/A   Scattered Clouds
2:15 PM 96.1 °F 101.6 °F 68.5 °F 41% 29.89 in 10.0 mi SE 13.8 mph 19.6 mph N/A   Scattered Clouds
2:35 PM 96.8 °F 101.8 °F 68.0 °F 39% 29.89 in 7.0 mi SE 10.4 mph 20.7 mph N/A   Scattered Clouds
3:15 PM 96.6 °F 101.5 °F 68.0 °F 39% 29.88 in 7.0 mi SSE 15.0 mph 21.9 mph N/A   Scattered Clouds
3:35 PM 95.9 °F 101.9 °F 69.3 °F 42% 29.88 in 10.0 mi SE 15.0 mph 23.0 mph N/A   Scattered Clouds
3:55 PM 96.1 °F 101.0 °F 68.2 °F 40% 29.87 in 7.0 mi SSE 12.7 mph 24.2 mph N/A   Scattered Clouds
4:15 PM 96.3 °F 100.8 °F 67.5 °F 39% 29.86 in 7.0 mi SSE 17.3 mph 23.0 mph N/A   Scattered Clouds
4:35 PM 96.4 °F 101.1 °F 67.8 °F 39% 29.86 in 7.0 mi SSE 16.1 mph - N/A   Scattered Clouds
4:55 PM 94.8 °F 98.7 °F 67.1 °F 40% 29.86 in 10.0 mi SE 15.0 mph 21.9 mph N/A   Mostly Cloudy
5:35 PM 94.8 °F 98.7 °F 67.3 °F 40% 29.86 in 7.0 mi SE 12.7 mph 24.2 mph N/A   Scattered Clouds
5:55 PM 93.4 °F 98.1 °F 68.7 °F 44% 29.86 in 5.0 mi SE 15.0 mph 20.7 mph N/A   Haze
6:15 PM 91.4 °F 96.3 °F 68.9 °F 48% 29.86 in 7.0 mi SSE 13.8 mph 23.0 mph N/A   Scattered Clouds
6:35 PM 91.4 °F 96.3 °F 69.1 °F 48% 29.86 in 7.0 mi SSE 15.0 mph 20.7 mph N/A   Clear
6:55 PM 90.7 °F 95.9 °F 69.8 °F 50% 29.86 in 10.0 mi SE 16.1 mph 21.9 mph N/A   Scattered Clouds
7:15 PM 90.0 °F 94.5 °F 69.3 °F 50% 29.87 in 7.0 mi SE 10.4 mph 18.4 mph N/A   Clear
7:35 PM 88.7 °F 93.9 °F 70.3 °F 54% 29.87 in 7.0 mi SE 15.0 mph 20.7 mph N/A   Scattered Clouds
7:55 PM 87.3 °F 92.0 °F 70.0 °F 56% 29.88 in 10.0 mi SE 15.0 mph 23.0 mph N/A   Scattered Clouds
8:15 PM 85.8 °F 90.8 °F 70.5 °F 60% 29.88 in 10.0 mi SSE 12.7 mph 19.6 mph N/A   Clear
8:35 PM 84.7 °F 89.7 °F 70.9 °F 63% 29.88 in 10.0 mi SSE 15.0 mph 19.6 mph N/A   Clear
8:55 PM 83.8 °F 88.6 °F 71.1 °F 65% 29.89 in 10.0 mi SSE 11.5 mph 18.4 mph N/A   Clear
9:15 PM 83.3 °F 88.4 °F 71.6 °F 68% 29.89 in 10.0 mi SE 13.8 mph 20.7 mph N/A   Clear
9:35 PM 82.4 °F 87.2 °F 71.8 °F 70% 29.90 in 10.0 mi SE 9.2 mph - N/A   Clear
9:55 PM 81.9 °F 86.6 °F 72.1 °F 72% 29.91 in 10.0 mi SE 8.1 mph - N/A   Clear
10:15 PM 81.5 °F 86.1 °F 72.0 °F 73% 29.93 in 10.0 mi SSE 9.2 mph - N/A   Clear
10:35 PM 80.8 °F 85.2 °F 72.5 °F 76% 29.93 in 10.0 mi SE 9.2 mph - N/A   Clear
10:55 PM 80.6 °F 84.9 °F 72.5 °F 76% 29.94 in 10.0 mi SE 5.8 mph - N/A   Scattered Clouds
11:15 PM 80.2 °F 84.5 °F 72.9 °F 78% 29.95 in 10.0 mi SE 8.1 mph - N/A   Scattered Clouds
11:35 PM 79.9 °F - 73.4 °F 80% 29.94 in 10.0 mi SE 8.1 mph - N/A   Scattered Clouds
11:55 PM 79.7 °F - 73.4 °F 81% 29.94 in 10.0 mi SE 8.1 mph - N/A   Scattered Clouds